| time (UTC) | temp F | wind direction | speed MPH | gust MPH | rain 1hr in | rain 24hr in | rain mn in | humidity % | barometer mb |
| 20260502194515 | 57 | 265 | 1.0 | 8.0 | 0.00 | 0.00 | 0.00 | 38 | 1020.6 |
| 20260502193011 | 57 | 355 | 0.0 | 6.0 | 0.00 | 0.00 | 0.00 | 40 | 1021.0 |
| 20260502191515 | 55 | 360 | 0.0 | 13.0 | 0.00 | 0.00 | 0.00 | 43 | 1021.3 |
| 20260502190003 | 54 | 310 | 8.0 | 17.0 | 0.00 | 0.00 | 0.00 | 44 | 1021.3 |
| 20260502184605 | 55 | 360 | 2.0 | 10.0 | 0.00 | 0.00 | 0.00 | 41 | 1021.4 |
| 20260502183054 | 55 | 15 | 0.0 | 12.0 | 0.00 | 0.00 | 0.00 | 39 | 1021.5 |
| 20260502181550 | 57 | 329 | 0.0 | 5.0 | 0.00 | 0.00 | 0.00 | 38 | 1021.7 |
| 20260502163020 | 55 | 304 | 0.0 | 10.0 | 0.00 | 0.00 | 0.00 | 40 | 1022.6 |
| 20260502161514 | 53 | 309 | 2.0 | 11.0 | 0.00 | 0.00 | 0.00 | 42 | 1022.8 |
| 20260502151603 | 50 | 269 | 5.0 | 10.0 | 0.00 | 0.00 | 0.00 | 42 | 1023.1 |
| 20260502123008 | 40 | 113 | 0.0 | 0.0 | 0.00 | 0.00 | 0.00 | 100 | 1023.0 |
| 20260502121515 | 39 | 113 | 0.0 | 0.0 | 0.00 | 0.00 | 0.00 | 100 | 1022.8 |
| 20260502120105 | 37 | 113 | 0.0 | 0.0 | 0.00 | 0.00 | 0.00 | 100 | 1022.7 |
| 20260502114558 | 36 | 113 | 0.0 | 0.0 | 0.00 | 0.00 | 0.00 | 100 | 1022.5 |
| 20260502113052 | 35 | 113 | 0.0 | 0.0 | 0.00 | 0.00 | 0.00 | 100 | 1022.4 |
| 20260502111600 | 33 | 113 | 0.0 | 0.0 | 0.00 | 0.00 | 0.00 | 100 | 1022.2 |
| 20260502110043 | 33 | 113 | 0.0 | 0.0 | 0.00 | 0.00 | 0.00 | 100 | 1022.1 |
| 20260502104539 | 33 | 113 | 0.0 | 0.0 | 0.00 | 0.00 | 0.00 | 100 | 1022.1 |
| 20260502103038 | 33 | 113 | 0.0 | 0.0 | 0.00 | 0.00 | 0.00 | 100 | 1022.0 |
| 20260502101530 | 33 | 113 | 0.0 | 0.0 | 0.00 | 0.00 | 0.00 | 100 | 1022.0 |
| 20260502091513 | 34 | 113 | 0.0 | 0.0 | 0.00 | 0.00 | 0.00 | 100 | 1021.9 |
| 20260502070035 | 36 | 113 | 0.0 | 0.0 | 0.00 | 0.00 | 0.00 | 100 | 1022.0 |
| 20260502064531 | 37 | 113 | 0.0 | 0.0 | 0.00 | 0.00 | 0.00 | 100 | 1022.0 |
| 20260502063029 | 37 | 113 | 0.0 | 0.0 | 0.00 | 0.00 | 0.00 | 100 | 1022.2 |
| 20260502061521 | 37 | 113 | 0.0 | 0.0 | 0.00 | 0.00 | 0.00 | 100 | 1022.3 |
| 20260502060020 | 38 | 113 | 0.0 | 0.0 | 0.00 | 0.00 | 0.00 | 100 | 1022.3 |
| 20260502054523 | 38 | 113 | 0.0 | 0.0 | 0.00 | 0.00 | 0.00 | 100 | 1022.4 |
| 20260502053007 | 38 | 113 | 0.0 | 0.0 | 0.00 | 0.00 | 0.00 | 100 | 1022.3 |
| 20260502051503 | 39 | 113 | 0.0 | 0.0 | 0.00 | 0.00 | 0.00 | 100 | 1022.3 |
| 20260502050059 | 39 | 113 | 0.0 | 0.0 | 0.00 | 0.00 | 0.00 | 100 | 1022.4 |
| 20260502044554 | 39 | 113 | 0.0 | 0.0 | 0.00 | 0.00 | 0.00 | 100 | 1022.4 |
| 20260502043051 | 39 | 113 | 0.0 | 0.0 | 0.00 | 0.00 | 0.00 | 100 | 1022.3 |
| 20260502041546 | 40 | 113 | 0.0 | 0.0 | 0.00 | 0.00 | 0.00 | 100 | 1022.2 |
| 20260502040041 | 40 | 113 | 0.0 | 0.0 | 0.00 | 0.00 | 0.00 | 100 | 1022.2 |
| 20260502034536 | 40 | 113 | 0.0 | 0.0 | 0.00 | 0.00 | 0.00 | 100 | 1022.1 |
| 20260502033041 | 40 | 113 | 0.0 | 0.0 | 0.00 | 0.00 | 0.00 | 100 | 1022.0 |
| 20260502031527 | 40 | 112 | 0.0 | 3.0 | 0.00 | 0.00 | 0.00 | 100 | 1022.0 |
| 20260502030023 | 41 | 92 | 1.0 | 5.0 | 0.00 | 0.00 | 0.00 | 100 | 1022.0 |
| 20260502024518 | 41 | 100 | 0.0 | 7.0 | 0.00 | 0.00 | 0.00 | 100 | 1021.8 |
| 20260502023014 | 41 | 74 | 3.0 | 9.0 | 0.00 | 0.00 | 0.00 | 100 | 1021.7 |
| 20260502021514 | 42 | 82 | 1.0 | 8.0 | 0.00 | 0.00 | 0.00 | 100 | 1021.5 |
| 20260502020006 | 42 | 90 | 2.0 | 10.0 | 0.00 | 0.00 | 0.00 | 100 | 1021.3 |
| 20260502014501 | 42 | 95 | 2.0 | 9.0 | 0.00 | 0.00 | 0.00 | 100 | 1020.9 |
| 20260502013057 | 43 | 89 | 3.0 | 9.0 | 0.00 | 0.00 | 0.00 | 100 | 1020.8 |
| 20260502011556 | 44 | 90 | 4.0 | 13.0 | 0.00 | 0.00 | 0.00 | 100 | 1020.5 |
| 20260502010053 | 45 | 82 | 3.0 | 10.0 | 0.00 | 0.00 | 0.00 | 100 | 1020.3 |
| 20260502004602 | 47 | 88 | 2.0 | 8.0 | 0.00 | 0.00 | 0.00 | 100 | 1020.1 |
| 20260502003040 | 47 | 77 | 0.0 | 5.0 | 0.00 | 0.00 | 0.00 | 100 | 1019.9 |
| 20260502001535 | 47 | 65 | 0.0 | 5.0 | 0.00 | 0.00 | 0.00 | 100 | 1019.8 |
| 20260502000047 | 48 | 98 | 0.0 | 0.0 | 0.00 | 0.00 | 0.00 | 15 | 1019.6 |
| 20260501234530 | 48 | 105 | 0.0 | 3.0 | 0.00 | 0.00 | 0.00 | 17 | 1019.7 |
| 20260501233022 | 49 | 103 | 0.0 | 7.0 | 0.00 | 0.00 | 0.00 | 8 | 1019.6 |
| 20260501231529 | 48 | 126 | 1.0 | 7.0 | 0.00 | 0.00 | 0.00 | 4 | 1019.7 |
| 20260501230013 | 48 | 93 | 3.0 | 9.0 | 0.00 | 0.00 | 0.00 | 7 | 1019.9 |
| 20260501224508 | 49 | 77 | 1.0 | 9.0 | 0.00 | 0.00 | 0.00 | 38 | 1020.0 |
| 20260501223007 | 51 | 360 | 0.0 | 7.0 | 0.00 | 0.00 | 0.00 | 45 | 1019.8 |
| 20260501221604 | 51 | 360 | 0.0 | 0.0 | 0.00 | 0.00 | 0.00 | 45 | 1019.7 |
| 20260501220104 | 52 | 300 | 0.0 | 10.0 | 0.00 | 0.00 | 0.00 | 45 | 1019.7 |
| 20260501214552 | 52 | 360 | 0.0 | 9.0 | 0.00 | 0.00 | 0.00 | 45 | 1019.8 |
| 20260501213106 | 51 | 360 | 0.0 | 3.0 | 0.00 | 0.00 | 0.00 | 45 | 1019.8 |
| 20260501211544 | 51 | 302 | 0.0 | 7.0 | 0.00 | 0.00 | 0.00 | 45 | 1019.7 |
| 20260501210039 | 51 | 313 | 0.0 | 8.0 | 0.00 | 0.00 | 0.00 | 46 | 1019.7 |
| 20260501204534 | 51 | 318 | 1.0 | 8.0 | 0.00 | 0.00 | 0.00 | 45 | 1019.8 |
| 20260501203029 | 51 | 360 | 0.0 | 7.0 | 0.00 | 0.00 | 0.00 | 45 | 1019.8 |
| 20260501201526 | 51 | 360 | 0.0 | 10.0 | 0.00 | 0.00 | 0.00 | 45 | 1019.8 |
| 20260501200021 | 51 | 360 | 3.0 | 15.0 | 0.00 | 0.00 | 0.00 | 45 | 1019.7 |